| time (UTC) | temp F | wind direction | speed knots | gust knots | rain 1hr in | rain 24hr in | rain mn in | humidity % | barometer mb |
| 20260505205426 | 48 | 175 | 0.9 | 2.6 | 0.00 | 0.00 | 0.00 | 52 | 1008.6 |
| 20260505204922 | 48 | 152 | 0.9 | 2.6 | 0.00 | 0.00 | 0.00 | 52 | 1008.4 |
| 20260505204420 | 48 | 180 | 0.9 | 1.7 | 0.00 | 0.00 | 0.00 | 51 | 1008.5 |
| 20260505203917 | 48 | 141 | 1.7 | 2.6 | 0.00 | 0.00 | 0.00 | 51 | 1008.4 |
| 20260505203414 | 49 | 163 | 1.7 | 2.6 | 0.00 | 0.00 | 0.00 | 51 | 1008.3 |
| 20260505202910 | 49 | 184 | 1.7 | 2.6 | 0.00 | 0.00 | 0.00 | 51 | 1008.4 |
| 20260505202406 | 49 | 181 | 1.7 | 1.7 | 0.00 | 0.00 | 0.00 | 51 | 1008.3 |
| 20260505201902 | 49 | 175 | 1.7 | 1.7 | 0.00 | 0.00 | 0.00 | 51 | 1008.4 |
| 20260505201359 | 49 | 178 | 0.9 | 2.6 | 0.00 | 0.00 | 0.00 | 51 | 1008.2 |
| 20260505200858 | 50 | 171 | 1.7 | 2.6 | 0.00 | 0.00 | 0.00 | 51 | 1008.4 |
| 20260505200354 | 50 | 199 | 0.0 | 1.7 | 0.00 | 0.00 | 0.00 | 51 | 1008.6 |
| 20260505195850 | 50 | 158 | 0.0 | 1.7 | 0.00 | 0.00 | 0.00 | 51 | 1008.4 |
| 20260505195347 | 50 | 124 | 0.0 | 1.7 | 0.00 | 0.00 | 0.00 | 51 | 1008.5 |
| 20260505194844 | 50 | 89 | 0.9 | 1.7 | 0.00 | 0.00 | 0.00 | 51 | 1008.3 |
| 20260505194342 | 50 | 173 | 1.7 | 2.6 | 0.00 | 0.00 | 0.00 | 51 | 1008.2 |
| 20260505193837 | 51 | 170 | 1.7 | 2.6 | 0.00 | 0.00 | 0.00 | 51 | 1008.5 |
| 20260505193335 | 51 | 180 | 1.7 | 2.6 | 0.00 | 0.00 | 0.00 | 50 | 1008.4 |
| 20260505192833 | 51 | 180 | 0.0 | 0.0 | 0.00 | 0.00 | 0.00 | 51 | 1008.2 |
| 20260505192331 | 51 | 170 | 0.9 | 1.7 | 0.00 | 0.00 | 0.00 | 50 | 1008.2 |
| 20260505191828 | 51 | 147 | 0.9 | 1.7 | 0.00 | 0.00 | 0.00 | 50 | 1008.0 |
| 20260505191327 | 51 | 131 | 1.7 | 2.6 | 0.00 | 0.00 | 0.00 | 50 | 1008.0 |
| 20260505190823 | 51 | 352 | 0.0 | 1.7 | 0.00 | 0.00 | 0.00 | 50 | 1008.3 |
| 20260505190318 | 52 | 171 | 0.0 | 1.7 | 0.00 | 0.00 | 0.00 | 49 | 1008.2 |
| 20260505185814 | 52 | 178 | 1.7 | 2.6 | 0.00 | 0.00 | 0.00 | 49 | 1007.8 |
| 20260505185311 | 52 | 180 | 2.6 | 4.3 | 0.00 | 0.00 | 0.00 | 49 | 1007.8 |
| 20260505184807 | 52 | 180 | 1.7 | 3.5 | 0.00 | 0.00 | 0.00 | 48 | 1007.8 |
| 20260505184304 | 53 | 225 | 2.6 | 5.2 | 0.00 | 0.00 | 0.00 | 48 | 1007.8 |
| 20260505183801 | 53 | 186 | 2.6 | 3.5 | 0.00 | 0.00 | 0.00 | 48 | 1007.8 |
| 20260505183258 | 53 | 181 | 2.6 | 4.3 | 0.00 | 0.00 | 0.00 | 48 | 1007.9 |
| 20260505182755 | 53 | 189 | 3.5 | 6.1 | 0.00 | 0.00 | 0.00 | 48 | 1007.5 |
| 20260505182251 | 53 | 182 | 2.6 | 4.3 | 0.00 | 0.00 | 0.00 | 48 | 1007.6 |
| 20260505181748 | 54 | 147 | 2.6 | 7.8 | 0.00 | 0.00 | 0.00 | 47 | 1007.8 |
| 20260505181246 | 54 | 172 | 2.6 | 7.8 | 0.00 | 0.00 | 0.00 | 47 | 1007.9 |
| 20260505180742 | 54 | 217 | 2.6 | 6.1 | 0.00 | 0.00 | 0.00 | 47 | 1007.7 |
| 20260505180238 | 54 | 178 | 3.5 | 5.2 | 0.00 | 0.00 | 0.00 | 47 | 1007.7 |
| 20260505175735 | 54 | 189 | 2.6 | 5.2 | 0.00 | 0.00 | 0.00 | 47 | 1007.6 |
| 20260505175231 | 55 | 198 | 2.6 | 3.5 | 0.00 | 0.00 | 0.00 | 47 | 1007.7 |
| 20260505174728 | 55 | 199 | 0.9 | 6.1 | 0.00 | 0.00 | 0.00 | 47 | 1007.5 |
| 20260505174225 | 55 | 216 | 1.7 | 4.3 | 0.00 | 0.00 | 0.00 | 47 | 1007.6 |
| 20260505173721 | 55 | 212 | 5.2 | 10.4 | 0.00 | 0.00 | 0.00 | 46 | 1007.5 |
| 20260505173218 | 55 | 186 | 2.6 | 5.2 | 0.00 | 0.00 | 0.00 | 46 | 1007.6 |
| 20260505172715 | 55 | 207 | 4.3 | 7.8 | 0.00 | 0.00 | 0.00 | 46 | 1007.8 |
| 20260505172212 | 55 | 176 | 1.7 | 9.6 | 0.00 | 0.00 | 0.00 | 46 | 1007.5 |
| 20260505171712 | 55 | 209 | 5.2 | 8.7 | 0.00 | 0.00 | 0.00 | 46 | 1007.5 |
| 20260505171209 | 55 | 195 | 3.5 | 9.6 | 0.00 | 0.00 | 0.00 | 46 | 1007.5 |
| 20260505170706 | 56 | 236 | 3.5 | 7.8 | 0.00 | 0.00 | 0.00 | 45 | 1007.5 |
| 20260505170203 | 56 | 237 | 0.9 | 8.7 | 0.00 | 0.00 | 0.00 | 45 | 1007.6 |
| 20260505165703 | 56 | 203 | 4.3 | 9.6 | 0.00 | 0.00 | 0.00 | 45 | 1007.4 |
| 20260505165159 | 56 | 148 | 1.7 | 4.3 | 0.00 | 0.00 | 0.00 | 44 | 1007.5 |
| 20260505164655 | 56 | 143 | 3.5 | 9.6 | 0.00 | 0.00 | 0.00 | 44 | 1007.4 |
| 20260505164153 | 56 | 221 | 5.2 | 10.4 | 0.00 | 0.00 | 0.00 | 44 | 1007.6 |
| 20260505163651 | 56 | 218 | 8.7 | 13.0 | 0.00 | 0.00 | 0.00 | 44 | 1007.5 |
| 20260505163149 | 56 | 282 | 0.9 | 6.1 | 0.00 | 0.00 | 0.00 | 44 | 1007.5 |
| 20260505162646 | 57 | 228 | 2.6 | 9.6 | 0.00 | 0.00 | 0.00 | 44 | 1007.6 |
| 20260505162143 | 57 | 206 | 4.3 | 7.8 | 0.00 | 0.00 | 0.00 | 44 | 1007.5 |
| 20260505161640 | 57 | 203 | 1.7 | 10.4 | 0.00 | 0.00 | 0.00 | 43 | 1007.3 |
| 20260505161137 | 57 | 236 | 6.1 | 13.0 | 0.00 | 0.00 | 0.00 | 43 | 1007.4 |
| 20260505160635 | 57 | 251 | 2.6 | 8.7 | 0.00 | 0.00 | 0.00 | 43 | 1007.5 |
| 20260505160132 | 57 | 237 | 5.2 | 12.2 | 0.00 | 0.00 | 0.00 | 42 | 1007.5 |
| 20260505153112 | 57 | 187 | 7.8 | 12.2 | 0.00 | 0.00 | 0.00 | 43 | 1007.3 |
| 20260505152608 | 57 | 230 | 3.5 | 8.7 | 0.00 | 0.00 | 0.00 | 44 | 1007.1 |
| 20260505152104 | 57 | 207 | 6.1 | 10.4 | 0.00 | 0.00 | 0.00 | 44 | 1007.1 |
| 20260505151559 | 57 | 316 | 0.0 | 7.0 | 0.00 | 0.00 | 0.00 | 44 | 1007.3 |
| 20260505151057 | 57 | 172 | 2.6 | 6.1 | 0.00 | 0.00 | 0.00 | 43 | 1007.1 |
| 20260505150553 | 57 | 202 | 3.5 | 9.6 | 0.00 | 0.00 | 0.00 | 43 | 1007.0 |
| 20260505140519 | 57 | 181 | 11.3 | 11.3 | 0.00 | 0.00 | 0.00 | 45 | 1006.8 |
| 20260505124932 | 54 | 244 | 4.3 | 9.6 | 0.00 | 0.00 | 0.00 | 45 | 1006.8 |
| 20260505124429 | 54 | 207 | 4.3 | 10.4 | 0.00 | 0.00 | 0.00 | 46 | 1007.1 |
| 20260505123925 | 54 | 263 | 3.5 | 7.8 | 0.00 | 0.00 | 0.00 | 46 | 1006.8 |
| 20260505123422 | 54 | 283 | 10.4 | 10.4 | 0.00 | 0.00 | 0.00 | 46 | 1007.1 |
| 20260505122918 | 54 | 222 | 6.1 | 8.7 | 0.00 | 0.00 | 0.00 | 46 | 1007.0 |
| 20260505122415 | 54 | 349 | 6.1 | 7.0 | 0.00 | 0.00 | 0.00 | 46 | 1006.9 |
| 20260505121912 | 53 | 287 | 2.6 | 10.4 | 0.00 | 0.00 | 0.00 | 46 | 1006.9 |
| 20260505121409 | 53 | 277 | 5.2 | 7.8 | 0.00 | 0.00 | 0.00 | 46 | 1006.9 |
| 20260505120905 | 53 | 337 | 4.3 | 9.6 | 0.00 | 0.00 | 0.00 | 46 | 1006.8 |
| 20260505120401 | 53 | 328 | 6.1 | 11.3 | 0.00 | 0.00 | 0.00 | 46 | 1006.9 |
| 20260505115900 | 53 | 279 | 2.6 | 7.8 | 0.00 | 0.00 | 0.00 | 46 | 1006.8 |
| 20260505115357 | 53 | 197 | 5.2 | 9.6 | 0.00 | 0.00 | 0.00 | 46 | 1006.9 |
| 20260505114855 | 53 | 170 | 3.5 | 14.8 | 0.00 | 0.00 | 0.00 | 46 | 1006.9 |
| 20260505114351 | 52 | 306 | 5.2 | 11.3 | 0.00 | 0.00 | 0.00 | 45 | 1006.9 |
| 20260505113847 | 52 | 212 | 4.3 | 12.2 | 0.00 | 0.00 | 0.00 | 46 | 1006.8 |
| 20260505113344 | 52 | 243 | 3.5 | 7.8 | 0.00 | 0.00 | 0.00 | 47 | 1006.7 |
| 20260505112840 | 51 | 208 | 3.5 | 6.1 | 0.00 | 0.00 | 0.00 | 48 | 1007.0 |
| 20260505112338 | 51 | 279 | 7.0 | 18.2 | 0.00 | 0.00 | 0.00 | 47 | 1006.9 |
| 20260505111833 | 51 | 257 | 1.7 | 9.6 | 0.00 | 0.00 | 0.00 | 48 | 1007.2 |
| 20260505111329 | 51 | 306 | 2.6 | 6.1 | 0.00 | 0.00 | 0.00 | 49 | 1007.0 |
| 20260505110825 | 50 | 37 | 0.0 | 6.1 | 0.00 | 0.00 | 0.00 | 48 | 1006.9 |
| 20260505110323 | 50 | 197 | 3.5 | 8.7 | 0.00 | 0.00 | 0.00 | 49 | 1006.8 |
| 20260505101757 | 48 | 253 | 4.3 | 5.2 | 0.00 | 0.00 | 0.00 | 48 | 1006.9 |
| 20260505101252 | 47 | 272 | 1.7 | 7.0 | 0.00 | 0.00 | 0.00 | 47 | 1007.0 |
| 20260505100749 | 47 | 286 | 3.5 | 7.8 | 0.00 | 0.00 | 0.00 | 47 | 1006.9 |
| 20260505100245 | 47 | 146 | 1.7 | 6.1 | 0.00 | 0.00 | 0.00 | 48 | 1007.0 |
| 20260505095741 | 47 | 242 | 2.6 | 7.0 | 0.00 | 0.00 | 0.00 | 47 | 1007.0 |
| 20260505095239 | 47 | 216 | 4.3 | 8.7 | 0.00 | 0.00 | 0.00 | 46 | 1007.2 |
| 20260505094734 | 46 | 28 | 1.7 | 2.6 | 0.00 | 0.00 | 0.00 | 49 | 1007.0 |
| 20260505094231 | 46 | 199 | 2.6 | 9.6 | 0.00 | 0.00 | 0.00 | 47 | 1007.1 |
| 20260505093727 | 46 | 253 | 4.3 | 7.8 | 0.00 | 0.00 | 0.00 | 48 | 1007.1 |
| 20260505093225 | 46 | 240 | 1.7 | 10.4 | 0.00 | 0.00 | 0.00 | 47 | 1007.1 |
| 20260505092722 | 46 | 43 | 4.3 | 5.2 | 0.00 | 0.00 | 0.00 | 49 | 1007.1 |
| 20260505092221 | 46 | 45 | 4.3 | 7.8 | 0.00 | 0.00 | 0.00 | 49 | 1006.8 |
| 20260505091717 | 46 | 12 | 5.2 | 10.4 | 0.00 | 0.00 | 0.00 | 50 | 1006.9 |
| 20260505091215 | 45 | 303 | 3.5 | 4.3 | 0.00 | 0.00 | 0.00 | 50 | 1006.8 |
| 20260505090712 | 45 | 240 | 0.0 | 4.3 | 0.00 | 0.00 | 0.00 | 50 | 1007.0 |
| 20260505090210 | 45 | 245 | 2.6 | 6.1 | 0.00 | 0.00 | 0.00 | 49 | 1006.9 |
| 20260505085708 | 45 | 263 | 3.5 | 5.2 | 0.00 | 0.00 | 0.00 | 50 | 1007.0 |
| 20260505085206 | 45 | 132 | 0.9 | 5.2 | 0.00 | 0.00 | 0.00 | 50 | 1006.9 |
| 20260505084703 | 44 | 12 | 6.1 | 8.7 | 0.00 | 0.00 | 0.00 | 50 | 1007.0 |
| 20260505084202 | 44 | 22 | 7.0 | 9.6 | 0.00 | 0.00 | 0.00 | 50 | 1006.7 |
| 20260505083659 | 44 | 325 | 2.6 | 7.8 | 0.00 | 0.00 | 0.00 | 51 | 1006.9 |
| 20260505083155 | 44 | 210 | 3.5 | 6.1 | 0.00 | 0.00 | 0.00 | 50 | 1006.7 |
| 20260505082651 | 44 | 3 | 0.0 | 2.6 | 0.00 | 0.00 | 0.00 | 52 | 1006.8 |
| 20260505082148 | 44 | 27 | 2.6 | 2.6 | 0.00 | 0.00 | 0.00 | 52 | 1006.6 |
| 20260505081644 | 44 | 123 | 1.7 | 7.8 | 0.00 | 0.00 | 0.00 | 53 | 1006.6 |
| 20260505081142 | 44 | 333 | 1.7 | 6.1 | 0.00 | 0.00 | 0.00 | 53 | 1006.6 |
| 20260505080638 | 43 | 339 | 0.9 | 2.6 | 0.00 | 0.00 | 0.00 | 53 | 1006.8 |
| 20260505080134 | 43 | 98 | 2.6 | 6.1 | 0.00 | 0.00 | 0.00 | 53 | 1006.6 |
| 20260505075630 | 43 | 88 | 2.6 | 6.1 | 0.00 | 0.00 | 0.00 | 53 | 1006.6 |
| 20260505075127 | 43 | 25 | 3.5 | 9.6 | 0.00 | 0.00 | 0.00 | 53 | 1006.6 |
| 20260505074624 | 43 | 13 | 4.3 | 6.1 | 0.00 | 0.00 | 0.00 | 53 | 1006.5 |
| 20260505074121 | 43 | 60 | 3.5 | 6.1 | 0.00 | 0.00 | 0.00 | 54 | 1006.6 |
| 20260505073619 | 43 | 264 | 2.6 | 2.6 | 0.00 | 0.00 | 0.00 | 53 | 1006.6 |
| 20260505073117 | 43 | 326 | 1.7 | 5.2 | 0.00 | 0.00 | 0.00 | 53 | 1006.7 |
| 20260505072612 | 43 | 308 | 2.6 | 5.2 | 0.00 | 0.00 | 0.00 | 53 | 1006.4 |
| 20260505072109 | 43 | 283 | 1.7 | 3.5 | 0.00 | 0.00 | 0.00 | 52 | 1006.5 |
| 20260505071604 | 42 | 67 | 3.5 | 6.1 | 0.00 | 0.00 | 0.00 | 53 | 1006.4 |
| 20260505071103 | 42 | 20 | 3.5 | 7.8 | 0.00 | 0.00 | 0.00 | 54 | 1006.6 |
| 20260505070600 | 42 | 347 | 4.3 | 7.0 | 0.00 | 0.00 | 0.00 | 54 | 1006.6 |
| 20260505070055 | 42 | 29 | 3.5 | 4.3 | 0.00 | 0.00 | 0.00 | 54 | 1006.8 |
| 20260505065552 | 42 | 345 | 4.3 | 6.1 | 0.00 | 0.00 | 0.00 | 54 | 1006.5 |
| 20260505065049 | 42 | 341 | 6.1 | 7.8 | 0.00 | 0.00 | 0.00 | 54 | 1006.6 |
| 20260505064545 | 42 | 332 | 4.3 | 7.0 | 0.00 | 0.00 | 0.00 | 54 | 1006.5 |
| 20260505064044 | 42 | 326 | 3.5 | 6.1 | 0.00 | 0.00 | 0.00 | 54 | 1006.5 |
| 20260505063541 | 42 | 309 | 2.6 | 7.0 | 0.00 | 0.00 | 0.00 | 54 | 1006.7 |
| 20260505063036 | 42 | 293 | 2.6 | 6.1 | 0.00 | 0.00 | 0.00 | 53 | 1006.6 |
| 20260505062533 | 42 | 338 | 6.1 | 7.8 | 0.00 | 0.00 | 0.00 | 54 | 1006.5 |
| 20260505062031 | 42 | 312 | 5.2 | 6.1 | 0.00 | 0.00 | 0.00 | 54 | 1006.6 |
| 20260505061528 | 42 | 319 | 2.6 | 7.0 | 0.00 | 0.00 | 0.00 | 54 | 1006.5 |
| 20260505061026 | 42 | 289 | 3.5 | 6.1 | 0.00 | 0.00 | 0.00 | 53 | 1006.5 |
| 20260505060523 | 42 | 276 | 3.5 | 9.6 | 0.00 | 0.00 | 0.00 | 53 | 1006.4 |
| 20260505060020 | 42 | 299 | 3.5 | 6.1 | 0.00 | 0.00 | 0.00 | 53 | 1006.6 |
| 20260505055515 | 42 | 324 | 5.2 | 8.7 | 0.00 | 0.00 | 0.00 | 53 | 1006.4 |
| 20260505055012 | 42 | 273 | 7.8 | 7.8 | 0.00 | 0.00 | 0.00 | 54 | 1006.4 |
| 20260505054509 | 42 | 339 | 4.3 | 5.2 | 0.00 | 0.00 | 0.00 | 54 | 1006.5 |
| 20260505054008 | 42 | 335 | 3.5 | 6.1 | 0.00 | 0.00 | 0.00 | 54 | 1006.1 |
| 20260505053504 | 42 | 346 | 2.6 | 5.2 | 0.00 | 0.00 | 0.00 | 54 | 1006.4 |
| 20260505053000 | 42 | 272 | 3.5 | 5.2 | 0.00 | 0.00 | 0.00 | 54 | 1006.2 |
| 20260505052458 | 42 | 302 | 2.6 | 4.3 | 0.00 | 0.00 | 0.00 | 54 | 1006.4 |
| 20260505051955 | 42 | 282 | 1.7 | 3.5 | 0.00 | 0.00 | 0.00 | 54 | 1006.2 |
| 20260505051452 | 42 | 271 | 1.7 | 3.5 | 0.00 | 0.00 | 0.00 | 54 | 1005.9 |
| 20260505050950 | 42 | 310 | 2.6 | 4.3 | 0.00 | 0.00 | 0.00 | 54 | 1006.4 |
| 20260505050448 | 42 | 267 | 0.0 | 2.6 | 0.00 | 0.00 | 0.00 | 54 | 1006.1 |
| 20260505041416 | 42 | 81 | 0.0 | 2.6 | 0.00 | 0.00 | 0.00 | 54 | 1005.7 |
| 20260505040913 | 42 | 84 | 1.7 | 2.6 | 0.00 | 0.00 | 0.00 | 54 | 1005.7 |
| 20260505040410 | 43 | 104 | 0.9 | 2.6 | 0.00 | 0.00 | 0.00 | 54 | 1005.5 |
| 20260505035907 | 43 | 264 | 1.7 | 2.6 | 0.00 | 0.00 | 0.00 | 54 | 1005.7 |
| 20260505035403 | 43 | 277 | 0.0 | 1.7 | 0.00 | 0.00 | 0.00 | 53 | 1005.6 |
| 20260505034900 | 43 | 157 | 1.7 | 2.6 | 0.00 | 0.00 | 0.00 | 53 | 1005.6 |
| 20260505034357 | 43 | 142 | 0.0 | 1.7 | 0.00 | 0.00 | 0.00 | 53 | 1005.4 |
| 20260505033854 | 43 | 210 | 1.7 | 2.6 | 0.00 | 0.00 | 0.00 | 53 | 1005.4 |
| 20260505033350 | 43 | 191 | 1.7 | 2.6 | 0.00 | 0.00 | 0.00 | 53 | 1005.3 |
| 20260505032849 | 43 | 212 | 1.7 | 2.6 | 0.00 | 0.00 | 0.00 | 53 | 1005.5 |
| 20260505032345 | 44 | 237 | 0.0 | 2.6 | 0.00 | 0.00 | 0.00 | 53 | 1005.6 |
| 20260505031842 | 44 | 166 | 1.7 | 2.6 | 0.00 | 0.00 | 0.00 | 53 | 1005.6 |
| 20260505031339 | 44 | 124 | 0.0 | 2.6 | 0.00 | 0.00 | 0.00 | 53 | 1005.2 |
| 20260505030836 | 44 | 102 | 1.7 | 2.6 | 0.00 | 0.00 | 0.00 | 53 | 1005.4 |
| 20260505030332 | 44 | 115 | 0.9 | 2.6 | 0.00 | 0.00 | 0.00 | 53 | 1005.5 |
| 20260505025827 | 44 | 102 | 0.9 | 2.6 | 0.00 | 0.00 | 0.00 | 53 | 1005.2 |
| 20260505025325 | 44 | 119 | 0.9 | 1.7 | 0.00 | 0.00 | 0.00 | 53 | 1005.4 |
| 20260505024823 | 44 | 125 | 0.0 | 2.6 | 0.00 | 0.00 | 0.00 | 53 | 1005.4 |
| 20260505024321 | 45 | 44 | 0.0 | 1.7 | 0.00 | 0.00 | 0.00 | 53 | 1005.3 |
| 20260505023818 | 45 | 106 | 0.9 | 1.7 | 0.00 | 0.00 | 0.00 | 53 | 1005.4 |
| 20260505023315 | 45 | 143 | 0.0 | 2.6 | 0.00 | 0.00 | 0.00 | 53 | 1005.2 |
| 20260505022812 | 45 | 171 | 0.9 | 3.5 | 0.00 | 0.00 | 0.00 | 53 | 1005.5 |
| 20260505022309 | 45 | 148 | 1.7 | 2.6 | 0.00 | 0.00 | 0.00 | 53 | 1005.2 |
| 20260505021806 | 45 | 116 | 1.7 | 2.6 | 0.00 | 0.00 | 0.00 | 53 | 1005.5 |
| 20260505021303 | 45 | 140 | 1.7 | 2.6 | 0.00 | 0.00 | 0.00 | 53 | 1005.1 |
| 20260505020759 | 45 | 191 | 1.7 | 3.5 | 0.00 | 0.00 | 0.00 | 53 | 1005.1 |
| 20260505020254 | 46 | 246 | 0.0 | 2.6 | 0.00 | 0.00 | 0.00 | 53 | 1005.1 |
| 20260505015752 | 46 | 159 | 1.7 | 2.6 | 0.00 | 0.00 | 0.00 | 53 | 1005.0 |
| 20260505015249 | 46 | 151 | 1.7 | 2.6 | 0.00 | 0.00 | 0.00 | 53 | 1005.1 |
| 20260505014746 | 46 | 246 | 1.7 | 2.6 | 0.00 | 0.00 | 0.00 | 53 | 1005.0 |
| 20260505014243 | 46 | 262 | 3.5 | 4.3 | 0.00 | 0.00 | 0.00 | 52 | 1005.1 |
| 20260505013739 | 46 | 275 | 1.7 | 4.3 | 0.00 | 0.00 | 0.00 | 52 | 1004.8 |
| 20260505013236 | 46 | 266 | 3.5 | 4.3 | 0.00 | 0.00 | 0.00 | 53 | 1004.9 |
| 20260505012734 | 46 | 281 | 1.7 | 3.5 | 0.00 | 0.00 | 0.00 | 52 | 1004.9 |
| 20260505012231 | 46 | 277 | 2.6 | 4.3 | 0.00 | 0.00 | 0.00 | 52 | 1004.7 |
| 20260505011727 | 47 | 325 | 0.0 | 2.6 | 0.00 | 0.00 | 0.00 | 53 | 1004.8 |
| 20260505011225 | 47 | 248 | 1.7 | 2.6 | 0.00 | 0.00 | 0.00 | 53 | 1004.6 |
| 20260505010720 | 47 | 218 | 1.7 | 1.7 | 0.00 | 0.00 | 0.00 | 53 | 1004.7 |
| 20260505010217 | 47 | 203 | 0.0 | 1.7 | 0.00 | 0.00 | 0.00 | 53 | 1004.6 |
| 20260505005713 | 47 | 269 | 0.0 | 1.7 | 0.00 | 0.00 | 0.00 | 53 | 1004.6 |
| 20260505005210 | 47 | 135 | 0.0 | 2.6 | 0.00 | 0.00 | 0.00 | 53 | 1004.5 |
| 20260505004707 | 47 | 190 | 2.6 | 3.5 | 0.00 | 0.00 | 0.00 | 53 | 1004.3 |
| 20260505004204 | 47 | 200 | 0.9 | 3.5 | 0.00 | 0.00 | 0.00 | 53 | 1004.6 |
| 20260505003701 | 48 | 211 | 0.0 | 1.7 | 0.00 | 0.00 | 0.00 | 53 | 1004.2 |
| 20260505003159 | 48 | 190 | 0.9 | 2.6 | 0.00 | 0.00 | 0.00 | 53 | 1004.4 |
| 20260505002655 | 48 | 184 | 0.0 | 2.6 | 0.00 | 0.00 | 0.00 | 53 | 1004.4 |
| 20260505002153 | 48 | 168 | 2.6 | 3.5 | 0.00 | 0.00 | 0.00 | 53 | 1004.5 |
| 20260505001649 | 48 | 169 | 1.7 | 5.2 | 0.00 | 0.00 | 0.00 | 52 | 1004.4 |
| 20260505001147 | 48 | 155 | 0.0 | 4.3 | 0.00 | 0.00 | 0.00 | 52 | 1004.1 |
| 20260505000644 | 48 | 113 | 0.9 | 1.7 | 0.00 | 0.00 | 0.00 | 52 | 1004.0 |
| 20260505000142 | 48 | 287 | 0.0 | 2.6 | 0.00 | 0.00 | 0.00 | 52 | 1004.1 |
| 20260504235638 | 48 | 289 | 2.6 | 5.2 | 0.00 | 0.00 | 0.00 | 51 | 1004.1 |
| 20260504235134 | 48 | 264 | 2.6 | 7.0 | 0.00 | 0.00 | 0.00 | 51 | 1003.9 |
| 20260504234632 | 48 | 279 | 3.5 | 7.8 | 0.00 | 0.00 | 0.00 | 50 | 1003.8 |
| 20260504234129 | 48 | 275 | 4.3 | 6.1 | 0.00 | 0.00 | 0.00 | 50 | 1003.9 |
| 20260504233625 | 49 | 275 | 3.5 | 4.3 | 0.00 | 0.00 | 0.00 | 51 | 1003.8 |
| 20260504233121 | 49 | 278 | 3.5 | 4.3 | 0.00 | 0.00 | 0.00 | 53 | 1003.8 |
| 20260504232619 | 49 | 310 | 3.5 | 4.3 | 0.00 | 0.00 | 0.00 | 53 | 1003.8 |
| 20260504232116 | 49 | 346 | 2.6 | 4.3 | 0.00 | 0.00 | 0.00 | 52 | 1003.9 |
| 20260504231612 | 49 | 307 | 3.5 | 5.2 | 0.00 | 0.00 | 0.00 | 51 | 1003.7 |
| 20260504231108 | 49 | 306 | 2.6 | 4.3 | 0.00 | 0.00 | 0.00 | 52 | 1003.7 |
| 20260504230604 | 49 | 276 | 2.6 | 7.0 | 0.00 | 0.00 | 0.00 | 51 | 1003.7 |
| 20260504230104 | 49 | 287 | 3.5 | 6.1 | 0.00 | 0.00 | 0.00 | 51 | 1003.3 |
| 20260504225601 | 49 | 290 | 1.7 | 7.0 | 0.00 | 0.00 | 0.00 | 52 | 1003.7 |
| 20260504225057 | 50 | 264 | 1.7 | 4.3 | 0.00 | 0.00 | 0.00 | 52 | 1003.7 |
| 20260504224554 | 50 | 277 | 1.7 | 4.3 | 0.00 | 0.00 | 0.00 | 51 | 1003.7 |
| 20260504224051 | 50 | 273 | 1.7 | 7.0 | 0.00 | 0.00 | 0.00 | 52 | 1003.7 |
| 20260504223548 | 50 | 280 | 2.6 | 5.2 | 0.00 | 0.00 | 0.00 | 53 | 1003.7 |
| 20260504223043 | 50 | 298 | 2.6 | 4.3 | 0.00 | 0.00 | 0.00 | 53 | 1003.5 |
| 20260504222541 | 50 | 286 | 3.5 | 7.0 | 0.00 | 0.00 | 0.00 | 52 | 1003.4 |
| 20260504222038 | 50 | 280 | 4.3 | 10.4 | 0.00 | 0.00 | 0.00 | 51 | 1003.2 |
| 20260504221535 | 50 | 284 | 3.5 | 7.0 | 0.00 | 0.00 | 0.00 | 51 | 1003.4 |
| 20260504221032 | 51 | 300 | 4.3 | 11.3 | 0.00 | 0.00 | 0.00 | 51 | 1003.3 |
| 20260504220529 | 51 | 282 | 2.6 | 8.7 | 0.00 | 0.00 | 0.00 | 51 | 1003.2 |
| 20260504220026 | 51 | 298 | 3.5 | 11.3 | 0.00 | 0.00 | 0.00 | 51 | 1003.1 |
| 20260504215522 | 51 | 288 | 2.6 | 5.2 | 0.00 | 0.00 | 0.00 | 52 | 1003.2 |
| 20260504215020 | 52 | 314 | 2.6 | 7.0 | 0.00 | 0.00 | 0.00 | 52 | 1002.9 |
| 20260504214515 | 52 | 271 | 2.6 | 10.4 | 0.00 | 0.00 | 0.00 | 53 | 1002.9 |
| 20260504214012 | 52 | 265 | 5.2 | 13.0 | 0.00 | 0.00 | 0.00 | 55 | 1002.7 |
| 20260504213508 | 52 | 324 | 5.2 | 12.2 | 0.00 | 0.00 | 0.00 | 56 | 1003.1 |
| 20260504213006 | 52 | 312 | 8.7 | 11.3 | 0.00 | 0.00 | 0.00 | 56 | 1002.9 |
| 20260504212501 | 53 | 276 | 5.2 | 9.6 | 0.00 | 0.00 | 0.00 | 55 | 1002.5 |
| 20260504211959 | 53 | 243 | 0.9 | 7.0 | 0.00 | 0.00 | 0.00 | 56 | 1002.4 |
| 20260504211455 | 53 | 236 | 3.5 | 7.0 | 0.00 | 0.00 | 0.00 | 56 | 1002.4 |
| 20260504210953 | 53 | 240 | 3.5 | 7.8 | 0.00 | 0.00 | 0.00 | 56 | 1002.2 |
| 20260504210450 | 53 | 282 | 7.0 | 18.2 | 0.00 | 0.00 | 0.00 | 56 | 1002.1 |
| 20260504205947 | 53 | 269 | 4.3 | 7.0 | 0.00 | 0.00 | 0.00 | 56 | 1002.2 |